User: anonymous   Login
Location: Campillo
(40.8621°N, 4.2488°W)
Time: 22:39:10
(UTC+00:00)
Language:

ATLAS 5 CENTAUR R/B - Orbit

View from above orbital plane
View from above orbital plane
View from above satellite
View from above satellite

Ground track
Ground track

The orbit data is extracted from the following two-line orbital elements,

1 31702U 07027B   21209.92658050 0.00000550  00000-0  97127-4 0    01
2 31702  63.3514 156.4745 0442628  19.4216 340.5784 14.18976242    03
Epoch (UTC): 28 July 2021 22:14:16
Eccentricity: 0.0442628
inclination: 63.3514°
perigee height: 510 km
apogee height: 1148 km
right ascension of ascending node: 156.4745°
argument of perigee: 19.4216°
revolutions per day: 14.18976242
mean anomaly at epoch: 340.5784°
orbit number at epoch: 0

The dashed part of the orbit path shows where the satellite is in the earth's shadow,  

DLR